EW9439 Weather Reports


Display with metric or nautical units.
time (UTC)temp
F
wind
direction
speed
MPH
gust
MPH
rain 1hr
in
rain 24hr
in
rain mn
in
humidity
%
barometer
mb
20260902181533 91 32 0.0 0.0 0.00 0.00 0.00 57 1014.2
20260902180035 92 355 0.0 0.0 0.00 0.00 0.00 59 1014.3
20260902174535 91 351 0.0 0.0 0.00 0.00 0.00 57 1014.3
20260902173052 90 337 0.0 0.0 0.00 0.00 0.00 63 1014.5
20260902171543 91 337 0.0 0.0 0.00 0.00 0.00 61 1014.8
20260902170044 92 337 0.0 0.0 0.00 0.00 0.00 57 1015.0
20260902164559 92 142 0.0 0.0 0.00 0.00 0.00 60 1015.1
20260902163049 92 142 0.0 0.0 0.00 0.00 0.00 60 1015.2
20260902161553 91 142 0.0 0.0 0.00 0.00 0.00 65 1015.2
20260902160107 90 136 0.0 0.0 0.00 0.00 0.00 66 1015.4
20260902154559 89 140 0.0 0.0 0.00 0.00 0.00 67 1015.6
20260902153055 88 45 0.0 0.0 0.00 0.00 0.00 71 1015.6
20260902151557 88 45 0.0 1.0 0.00 0.00 0.00 70 1015.6
20260902150057 88 59 0.0 0.0 0.00 0.00 0.00 71 1015.6
20260902144605 87 197 0.0 0.0 0.00 0.00 0.00 74 1015.7
20260902144503 87 196 0.0 0.0 0.00 0.00 0.00 75 1015.7
20260902143058 86 196 0.0 2.0 0.00 0.00 0.00 76 1015.7
20260902143002 86 196 0.0 2.0 0.00 0.00 0.00 76 1015.7
20260902141507 85 205 0.0 0.0 0.00 0.00 0.00 78 1015.7
20260902140009 84 205 0.0 1.0 0.00 0.00 0.00 78 1015.6
20260902134507 82 205 0.0 0.0 0.00 0.00 0.00 82 1015.7
20260902133012 80 205 0.0 0.0 0.00 0.00 0.00 89 1015.7
20260902131506 77 205 0.0 0.0 0.00 0.00 0.00 93 1015.8
20260902130024 75 205 0.0 0.0 0.00 0.00 0.00 95 1015.7
20260902124511 73 205 0.0 0.0 0.00 0.00 0.00 96 1015.7
20260902123025 73 205 0.0 0.0 0.00 0.00 0.00 96 1015.6
20260902121512 72 205 0.0 0.0 0.00 0.00 0.00 95 1015.5
20260902120012 72 205 0.0 0.0 0.00 0.00 0.00 95 1015.4
20260902114523 72 205 0.0 0.0 0.00 0.00 0.00 95 1015.1
20260902113016 72 205 0.0 0.0 0.00 0.00 0.00 95 1015.1
20260902111518 72 205 0.0 0.0 0.00 0.00 0.00 95 1014.9
20260902110025 72 205 0.0 0.0 0.00 0.00 0.00 95 1014.8
20260902104523 72 205 0.0 0.0 0.00 0.00 0.00 94 1014.8
20260902103016 72 205 0.0 0.0 0.00 0.00 0.00 94 1014.7
20260902101512 72 205 0.0 0.0 0.00 0.00 0.00 94 1014.5
20260902100014 72 205 0.0 0.0 0.00 0.00 0.00 94 1014.5
20260902094518 72 205 0.0 0.0 0.00 0.00 0.00 94 1014.5
20260902093024 73 205 0.0 0.0 0.00 0.00 0.00 94 1014.3
20260902091521 73 205 0.0 0.0 0.00 0.00 0.00 94 1014.2
20260902090021 73 205 0.0 0.0 0.00 0.00 0.00 94 1014.1
20260902084526 73 205 0.0 0.0 0.00 0.00 0.00 93 1014.0
20260902083034 73 205 0.0 0.0 0.00 0.00 0.00 93 1013.7
20260902081537 73 205 0.0 0.0 0.00 0.00 0.00 93 1013.5
20260902080039 74 205 0.0 0.0 0.00 0.00 0.00 93 1013.5
20260902074530 74 205 0.0 0.0 0.00 0.00 0.00 93 1013.5
20260902073032 74 205 0.0 0.0 0.00 0.00 0.00 93 1013.6
20260902071538 74 205 0.0 0.0 0.00 0.00 0.00 92 1013.6
20260902070034 74 205 0.0 0.0 0.00 0.00 0.00 92 1013.6
20260902064536 74 205 0.0 0.0 0.00 0.00 0.00 91 1013.7
20260902063038 75 205 0.0 0.0 0.00 0.00 0.00 92 1013.8
20260902061544 75 205 0.0 0.0 0.00 0.00 0.00 91 1013.9
20260902060052 75 205 0.0 0.0 0.00 0.00 0.00 91 1013.9
20260902054544 75 205 0.0 0.0 0.00 0.00 0.00 91 1014.1
20260902053050 75 205 0.0 0.0 0.00 0.00 0.00 90 1014.1
20260902051551 75 205 0.0 0.0 0.00 0.00 0.00 90 1014.1
20260902050055 76 205 0.0 0.0 0.00 0.00 0.00 90 1014.1
20260902044555 76 205 0.0 0.0 0.00 0.00 0.00 90 1014.2
20260902043057 76 205 0.0 0.0 0.00 0.00 0.00 90 1014.1
20260902043002 76 205 0.0 0.0 0.00 0.00 0.00 90 1014.2
20260902041607 76 205 0.0 0.0 0.00 0.00 0.00 89 1014.1
20260902041502 76 205 0.0 0.0 0.00 0.00 0.00 89 1014.1
20260902040057 77 205 0.0 0.0 0.00 0.00 0.00 89 1014.1
20260902034601 77 205 0.0 0.0 0.00 0.00 0.00 88 1014.2
20260902033107 77 205 0.0 0.0 0.00 0.00 0.00 87 1014.2
20260902033003 77 205 0.0 0.0 0.00 0.00 0.00 86 1014.2
20260902031506 77 205 0.0 0.0 0.00 0.00 0.00 86 1014.1
20260902030008 78 205 0.0 0.0 0.00 0.00 0.00 85 1014.1
20260902024510 78 205 0.0 0.0 0.00 0.00 0.00 85 1014.1
20260902023025 78 205 0.0 0.0 0.00 0.00 0.00 84 1014.1
20260902021526 79 205 0.0 0.0 0.00 0.00 0.00 83 1014.0
20260902020017 79 205 0.0 0.0 0.00 0.00 0.00 82 1013.9
20260902014518 80 205 0.0 0.0 0.00 0.00 0.00 80 1013.6
20260902013019 80 205 0.0 0.0 0.00 0.00 0.00 79 1013.5
20260902011520 81 205 0.0 0.0 0.00 0.00 0.00 78 1013.4
20260902010020 81 205 0.0 0.0 0.00 0.00 0.00 76 1013.1
20260902004522 82 205 0.0 0.0 0.00 0.00 0.00 75 1013.1
20260902003026 83 205 0.0 0.0 0.00 0.00 0.00 73 1013.1
20260902001527 84 205 0.0 0.0 0.00 0.00 0.00 72 1013.1
20260902000028 85 205 0.0 0.0 0.00 0.00 0.00 69 1013.2
20260901234530 86 205 0.0 0.0 0.00 0.00 0.00 67 1013.2
20260901233032 87 205 0.0 0.0 0.00 0.00 0.00 67 1013.3
20260901231531 87 205 0.0 0.0 0.00 0.00 0.00 65 1013.2
20260901230036 88 205 0.0 0.0 0.00 0.00 0.00 64 1013.2
20260901224529 89 205 0.0 0.0 0.00 0.00 0.00 59 1013.2
20260901223028 89 205 0.0 0.0 0.00 0.00 0.00 59 1013.1
20260901221532 89 13 0.0 0.0 0.00 0.00 0.00 58 1013.1
20260901220051 89 13 0.0 0.0 0.00 0.00 0.00 62 1013.0
20260901214523 89 13 0.0 0.0 0.00 0.00 0.00 58 1013.0
20260901213100 90 13 0.0 0.0 0.00 0.00 0.00 57 1013.1
20260901211534 90 13 0.0 0.0 0.00 0.00 0.00 56 1013.2
20260901210047 91 13 0.0 0.0 0.00 0.00 0.00 57 1013.2
20260901204541 91 157 0.0 0.0 0.00 0.00 0.00 55 1013.4
20260901203100 91 147 0.0 0.0 0.00 0.00 0.00 54 1013.6
20260901201541 91 144 0.0 1.0 0.00 0.00 0.00 58 1013.9
20260901200046 92 350 0.0 5.0 0.00 0.00 0.00 55 1013.9
20260901194549 91 72 0.0 0.0 0.00 0.00 0.00 56 1014.0
20260901193101 91 72 0.0 0.0 0.00 0.00 0.00 54 1014.4
20260901191557 92 360 0.0 0.0 0.00 0.00 0.00 53 1014.5
20260901184603 91 81 0.0 2.0 0.00 0.00 0.00 55 1014.8
20260901183102 89 329 0.0 0.0 0.00 0.00 0.00 61 1014.8
20260901183001 89 329 0.0 0.0 0.00 0.00 0.00 61 1014.8